When you browse on this site, cookies collect data to enhance your experience and personalize the content and advertising you see.
Visit our Privacy Policy to learn more. By continuing to use the site, you agree to this use of cookies and data.
  • In Hungary
  • List of Countries
  • For 7 days
  • Water Temperature
  • Satellite Maps
  • Weather Map
  • News
  • Weather Widgets
  • user-avatar
    Login

    Hourly Weather Santa Eularia des Riu

    Today, 20 November, Tuesday

    Time Temperature Precipitation Wind Pressure Humidity
    00:00 +16°C° 0 mm 2 mps 746 mmHg 73%
    01:00 +16°C° 0.2 mm 2 mps 747 mmHg 75%
    02:00 +14°C° 0.2 mm 3 mps 747 mmHg 76%
    03:00 +14°C° 0.2 mm 3 mps 747 mmHg 78%
    04:00 +14°C° 0.1 mm 4 mps 747 mmHg 77%
    05:00 +15°C° 0.1 mm 5 mps 747 mmHg 76%
    06:00 +15°C° 0.1 mm 6 mps 747 mmHg 75%
    07:00 +15°C° 0.1 mm 6 mps 747 mmHg 73%
    08:00 +16°C° 0.1 mm 7 mps 747 mmHg 72%
    09:00 +17°C° 0.1 mm 8 mps 748 mmHg 70%
    10:00 +17°C° 0 mm 8 mps 748 mmHg 68%
    11:00 +18°C° 0 mm 8 mps 748 mmHg 66%
    12:00 +18°C° 0 mm 9 mps 748 mmHg 64%
    13:00 +17°C° 0.7 mm 9 mps 748 mmHg 69%
    14:00 +16°C° 0.7 mm 9 mps 748 mmHg 75%
    15:00 +16°C° 0.7 mm 9 mps 748 mmHg 80%
    16:00 +16°C° 0.8 mm 10 mps 748 mmHg 78%
    17:00 +16°C° 0.8 mm 10 mps 748 mmHg 77%
    18:00 +16°C° 0.8 mm 11 mps 748 mmHg 76%
    19:00 +16°C° 0 mm 11 mps 749 mmHg 72%
    20:00 +16°C° 0 mm 11 mps 750 mmHg 67%
    21:00 +16°C° 0 mm 11 mps 750 mmHg 63%
    22:00 +15°C° 0 mm 12 mps 751 mmHg 63%
    23:00 +15°C° 0 mm 12 mps 751 mmHg 63%

    Tomorrow, 21 November, Wednesday

    Time Temperature Precipitation Wind Pressure Humidity
    00:00 +15°C° 0 mm 12 mps 752 mmHg 63%
    01:00 +16°C° 0 mm 11 mps 752 mmHg 63%
    02:00 +16°C° 0 mm 11 mps 752 mmHg 63%
    03:00 +16°C° 0 mm 10 mps 753 mmHg 64%
    04:00 +16°C° 0 mm 10 mps 753 mmHg 63%
    05:00 +16°C° 0 mm 9 mps 753 mmHg 63%
    06:00 +16°C° 0 mm 9 mps 754 mmHg 63%
    07:00 +16°C° 0 mm 8 mps 754 mmHg 61%
    08:00 +17°C° 0 mm 8 mps 755 mmHg 60%
    09:00 +17°C° 0 mm 8 mps 755 mmHg 58%
    10:00 +18°C° 0 mm 7 mps 756 mmHg 57%
    11:00 +18°C° 0 mm 7 mps 756 mmHg 56%
    12:00 +18°C° 0 mm 7 mps 756 mmHg 55%
    13:00 +19°C° 0 mm 6 mps 756 mmHg 57%
    14:00 +19°C° 0 mm 6 mps 756 mmHg 60%
    15:00 +19°C° 0 mm 6 mps 756 mmHg 63%
    16:00 +17°C° 0 mm 6 mps 756 mmHg 67%
    17:00 +17°C° 0 mm 6 mps 757 mmHg 71%
    18:00 +17°C° 0 mm 5 mps 757 mmHg 75%
    19:00 +17°C° 0 mm 5 mps 757 mmHg 76%
    20:00 +17°C° 0 mm 5 mps 757 mmHg 78%
    21:00 +17°C° 0 mm 5 mps 757 mmHg 79%
    22:00 +17°C° 0 mm 4 mps 758 mmHg 79%
    23:00 +17°C° 0 mm 4 mps 758 mmHg 79%

    Day after tomorrow, 22 November, Thursday

    Time Temperature Precipitation Wind Pressure Humidity
    00:00 +17°C° 0 mm 4 mps 758 mmHg 79%
    01:00 +17°C° 0.3 mm 4 mps 758 mmHg 80%
    02:00 +17°C° 0.3 mm 4 mps 758 mmHg 80%
    03:00 +17°C° 0.3 mm 4 mps 758 mmHg 80%
    04:00 +17°C° 0.2 mm 3 mps 758 mmHg 80%
    05:00 +17°C° 0.2 mm 3 mps 758 mmHg 81%
    06:00 +17°C° 0.2 mm 3 mps 758 mmHg 81%
    07:00 +17°C° 0 mm 2 mps 758 mmHg 78%
    08:00 +18°C° 0 mm 2 mps 759 mmHg 75%
    09:00 +18°C° 0 mm 2 mps 759 mmHg 72%
    10:00 +19°C° 0 mm 2 mps 759 mmHg 71%
    11:00 +19°C° 0 mm 2 mps 759 mmHg 70%
    12:00 +19°C° 0 mm 2 mps 759 mmHg 68%
    13:00 +19°C° 0 mm 2 mps 759 mmHg 68%
    14:00 +20°C° 0 mm 1 mps 759 mmHg 68%
    15:00 +20°C° 0 mm 1 mps 759 mmHg 68%
    16:00 +20°C° 0 mm 1 mps 759 mmHg 69%
    17:00 +19°C° 0 mm 1 mps 759 mmHg 71%
    18:00 +18°C° 0 mm 2 mps 759 mmHg 73%
    19:00 +18°C° 0 mm 2 mps 759 mmHg 73%
    20:00 +18°C° 0 mm 3 mps 759 mmHg 74%
    21:00 +18°C° 0 mm 3 mps 759 mmHg 75%
    22:00 +18°C° 0 mm 4 mps 759 mmHg 75%
    23:00 +18°C° 0 mm 4 mps 759 mmHg 75%

    23 November, Friday

    Time Temperature Precipitation Wind Pressure Humidity
    00:00 +18°C° 0 mm 4 mps 758 mmHg 75%
    01:00 +18°C° 0 mm 4 mps 758 mmHg 75%
    02:00 +18°C° 0 mm 4 mps 758 mmHg 76%
    03:00 +17°C° 0 mm 5 mps 757 mmHg 76%
    04:00 +17°C° 0 mm 5 mps 757 mmHg 77%
    05:00 +17°C° 0 mm 5 mps 757 mmHg 77%
    06:00 +17°C° 0 mm 5 mps 757 mmHg 77%
    07:00 +19°C° 0 mm 5 mps 757 mmHg 77%
    08:00 +19°C° 0 mm 5 mps 757 mmHg 76%
    09:00 +20°C° 0 mm 5 mps 757 mmHg 75%
    10:00 +20°C° 0 mm 5 mps 756 mmHg 71%
    11:00 +20°C° 0 mm 5 mps 756 mmHg 66%
    12:00 +21°C° 0 mm 5 mps 755 mmHg 61%
    13:00 +20°C° 0 mm 5 mps 755 mmHg 64%
    14:00 +20°C° 0 mm 5 mps 755 mmHg 67%
    15:00 +20°C° 0 mm 6 mps 754 mmHg 71%
    16:00 +19°C° 0 mm 6 mps 754 mmHg 74%
    17:00 +19°C° 0 mm 6 mps 755 mmHg 78%
    18:00 +17°C° 0 mm 6 mps 755 mmHg 82%
    19:00 +17°C° 0.1 mm 6 mps 755 mmHg 81%
    20:00 +17°C° 0.1 mm 6 mps 756 mmHg 80%
    21:00 +17°C° 0.1 mm 6 mps 756 mmHg 79%
    22:00 +16°C° 0 mm 7 mps 757 mmHg 74%
    23:00 +16°C° 0 mm 8 mps 757 mmHg 69%

    24 November, Saturday

    Time Temperature Precipitation Wind Pressure Humidity
    00:00 +16°C° 0 mm 9 mps 757 mmHg 64%
    01:00 +16°C° 0 mm 9 mps 757 mmHg 64%
    02:00 +16°C° 0 mm 8 mps 757 mmHg 64%
    03:00 +15°C° 0 mm 8 mps 757 mmHg 64%
    04:00 +15°C° 0 mm 7 mps 758 mmHg 64%
    05:00 +15°C° 0 mm 6 mps 758 mmHg 65%
    06:00 +15°C° 0 mm 6 mps 758 mmHg 66%
    07:00 +15°C° 0 mm 5 mps 759 mmHg 65%
    08:00 +15°C° 0 mm 4 mps 759 mmHg 64%
    09:00 +17°C° 0 mm 4 mps 759 mmHg 63%
    10:00 +17°C° 0 mm 4 mps 759 mmHg 62%
    11:00 +17°C° 0 mm 3 mps 759 mmHg 61%
    12:00 +17°C° 0 mm 3 mps 759 mmHg 61%
    13:00 +17°C° 0 mm 3 mps 759 mmHg 60%
    14:00 +17°C° 0 mm 2 mps 758 mmHg 60%
    15:00 +17°C° 0 mm 2 mps 758 mmHg 60%
    16:00 +16°C° 0 mm 2 mps 758 mmHg 61%
    17:00 +16°C° 0 mm 2 mps 758 mmHg 61%
    18:00 +15°C° 0 mm 1 mps 758 mmHg 61%
    19:00 +16°C° 0 mm 2 mps 759 mmHg 61%
    20:00 +16°C° 0 mm 2 mps 759 mmHg 60%
    21:00 +16°C° 0 mm 2 mps 759 mmHg 60%
    22:00 +16°C° 0 mm 2 mps 759 mmHg 62%
    23:00 +16°C° 0 mm 2 mps 758 mmHg 63%

    25 November, Sunday

    Time Temperature Precipitation Wind Pressure Humidity
    00:00 +16°C° 0 mm 2 mps 758 mmHg 65%
    01:00 +16°C° 0 mm 2 mps 758 mmHg 66%
    02:00 +16°C° 0 mm 2 mps 758 mmHg 67%
    03:00 +16°C° 0 mm 2 mps 757 mmHg 67%
    04:00 +16°C° 0 mm 2 mps 757 mmHg 66%
    05:00 +16°C° 0 mm 2 mps 757 mmHg 65%
    06:00 +16°C° 0 mm 2 mps 757 mmHg 64%
    07:00 +16°C° 0 mm 2 mps 757 mmHg 63%
    08:00 +17°C° 0 mm 3 mps 757 mmHg 61%
    09:00 +17°C° 0 mm 3 mps 757 mmHg 60%
    10:00 +17°C° 0 mm 3 mps 757 mmHg 60%
    11:00 +18°C° 0 mm 4 mps 757 mmHg 59%
    12:00 +17°C° 0 mm 5 mps 756 mmHg 59%
    13:00 +17°C° 0 mm 5 mps 756 mmHg 60%
    14:00 +17°C° 0 mm 6 mps 756 mmHg 61%
    15:00 +16°C° 0 mm 6 mps 755 mmHg 62%
    16:00 +16°C° 0 mm 7 mps 755 mmHg 61%
    17:00 +16°C° 0 mm 8 mps 755 mmHg 59%
    18:00 +16°C° 0 mm 8 mps 756 mmHg 58%
    19:00 +17°C° 0 mm 9 mps 756 mmHg 60%
    20:00 +17°C° 0 mm 9 mps 756 mmHg 62%
    21:00 +17°C° 0 mm 10 mps 756 mmHg 64%
    22:00 +17°C° 0 mm 10 mps 755 mmHg 64%
    23:00 +17°C° 0 mm 10 mps 755 mmHg 65%
    Show more